This demonstration page uses our WeatherBlox Daily Observations layout. Learn more.

Left ArrowRight Arrow

30.21309, -93.2044

Hourly Observations for June 25, 2019

Temp ( °F °C ) Dew Point ( °F °C ) Humidity (%) Winds ( mph kmh ) Pressure ( in mb ) Visibility ( mi km ) Precip ( " mm )
12:15 am 00:15 Clear 74 23.6 73 22.5 94 94 Calm 29.98 1015 10 16 0.00 0.00
12:35 am 00:35 Clear 74 23.5 73 22.6 95 95 Calm 29.98 1015 7 11 0.00 0.00
12:55 am 00:55 Clear 74 23.5 73 22.6 95 95 Calm 29.97 1015 7 11 0.00 0.00
1:15 am 01:15 Clear 74 23.5 73 22.6 95 95 Calm 29.97 1015 7 11 0.00 0.00
1:35 am 01:35 Clear 75 23.7 73 22.6 94 94 Calm 29.98 1015 10 16 0.00 0.00
1:55 am 01:55 Clear 75 23.8 73 22.7 94 94 Calm 29.97 1015 10 16 0.00 0.00
2:15 am 02:15 Clear 75 23.8 73 22.7 94 94 E 3 6 29.97 1015 10 16 0.00 0.00
2:35 am 02:35 Clear 74 23.6 73 22.7 95 95 Calm 29.96 1015 7 11 0.00 0.00
2:55 am 02:55 Clear 74 23.6 73 22.7 95 95 ESE 3 6 29.97 1015 10 16 0.00 0.00
3:15 am 03:15 Clear 74 23.6 73 22.8 95 95 E 5 7 29.96 1015 7 11 0.00 0.00
3:35 am 03:35 Clear 75 23.7 73 22.9 95 95 ESE 3 6 29.97 1015 7 11 0.00 0.00
3:55 am 03:55 Clear 75 23.8 73 22.9 95 95 ESE 5 7 29.97 1015 10 16 0.00 0.00
4:15 am 04:15 Clear 75 24.1 73 22.7 92 92 ESE 7 11 29.96 1015 10 16 0.00 0.00
4:35 am 04:35 Clear 76 24.5 73 22.6 89 89 SE 5 7 29.97 1015 10 16 0.00 0.00
4:55 am 04:55 Clear 76 24.3 73 22.7 91 91 ESE 5 7 29.97 1015 10 16 0.00 0.00
5:15 am 05:15 Partly Cloudy 76 24.4 73 22.9 91 91 SE 6 9 29.97 1015 10 16 0.00 0.00
5:35 am 05:35 Partly Cloudy 76 24.4 74 23.1 92 92 ESE 5 7 29.97 1015 7 11 0.00 0.00
6:00 am 06:00 Mostly Clear 75 24 73 23 94 94 Calm 29.98 1015 7 11 0.00 0.00
6:50 am 06:50 Mostly Sunny 75 24 75 24 100 100 E 6 9 29.98 1015 7 11 0.00 0.00
7:50 am 07:50 Mostly Sunny 77 25 75 24 94 94 Calm 30.01 1016 7 11 0.00 0.00
8:55 am 08:55 Mostly Cloudy 79 26 77 25 94 94 Calm 30.02 1017 7 11 0.00 0.00
9:55 am 09:55 Mostly Cloudy with Mist and Fog 81 27 79 26 94 94 SE 6 9 30.02 1017 5 8 0.00 0.00
10:55 am 10:55 Mostly Cloudy with Mist and Fog 82 28 79 26 89 89 SSW 6 9 30.05 1018 5 8 0.00 0.00
11:25 am 11:25 Cloudy with Thunderstorms 73 23 70 21 89 89 W 12 19 30.11 1020 6 10 0.00 0.00
11:45 am 11:45 Cloudy with Thunderstorms 72 22 70 21 94 94 WNW 16 26 30.12 1020 6 10 0.00 0.00
12:48 pm 12:48 Mostly Cloudy 72 22 70 21 94 94 NNW 12 19 30.09 1019 6 10 0.00 0.00
1:53 pm 13:53 Partly Cloudy 73 23 70 21 89 89 NNE 12 19 30.05 1018 7 11 0.00 0.00
2:55 pm 14:55 Mostly Sunny 77 25 72 22 83 83 Calm 30.05 1018 10 16 0.00 0.00
3:50 pm 15:50 Mostly Sunny 81 27 73 23 79 79 SE 7 11 30.05 1018 10 16 0.00 0.00
4:50 pm 16:50 Mostly Cloudy 79 26 73 23 84 84 S 7 11 30.07 1018 10 16 0.00 0.00
5:50 pm 17:50 Cloudy 73 23 70 21 89 89 WSW 3 6 30.04 1017 10 16 0.00 0.00
6:50 pm 18:50 Cloudy with Rain 72 22 70 21 94 94 SW 9 15 30.11 1020 7 11 0.00 0.00
7:50 pm 19:50 Cloudy with Light Rain 72 22 68 20 88 88 WSW 14 22 30.12 1020 7 11 0.00 0.00
9:50 pm 21:50 Partly Cloudy with Light Rain 72 22 68 20 88 88 VRB 7 11 30.09 1019 7 11 0.00 0.00
10:15 pm 22:15 Clear 71 21.7 69 20.7 94 94 WNW 6 9 30.07 1018 10 16 0.00 0.00
10:35 pm 22:35 Clear 71 21.6 69 20.7 95 95 SSE 5 7 30.08 1019 10 16 0.01 0.25
10:55 pm 22:55 Clear 71 21.6 69 20.7 95 95 ESE 7 11 30.08 1019 10 16 0.01 0.25
11:15 pm 23:15 Clear 71 21.5 69 20.8 96 96 E 6 9 30.08 1019 10 16 0.00 0.00
11:35 pm 23:35 Clear 71 21.5 69 20.8 96 96 E 6 9 30.08 1019 10 16 0.01 0.25
11:55 pm 23:55 Clear 71 21.5 70 20.9 96 96 E 6 9 30.08 1019 10 16 0.01 0.25

Powered by AerisWeather